Regional Weather Roundup
Issued by NWS Northern Indiana

Home | Current Version | Previous Version | Graphics & Text | Print | Product List | Glossary On
Versions: 1 2 3 4 5 6 7 8 9 10 11 12 13 14 15 16 17 18 19 20 21 22 23 24 25 26 27 28 29 30 31 32 33 34 35 36 37 38 39 40 41 42 43 44 45 46 47 48 49 50
000
ASUS43 KIWX 282110
RWRIWX

KIWX WEATHER ROUNDUP
NATIONAL WEATHER SERVICE NORTHERN INDIANA
400 PM EST FRI NOV 28 2014

NOTE: "FAIR" INDICATES FEW OR NO CLOUDS BELOW 12,000 FEET WITH NO
SIGNIFICANT WEATHER AND/OR OBSTRUCTIONS TO VISIBILITY.

* THESE STATIONS ARE NOT UNDER NWS QUALITY CONTROL. THEY ALSO MAY NOT
  REPORT WEATHER SUCH AS PRECIPITATION OR FOG.

INZ001>027-282200-
NORTHERN INDIANA

CITY           SKY/WX    TMP DP  RH WIND       PRES   REMARKS
GARY*          CLOUDY    32  19  59 SE18      30.03F WCI  20
VALPARAISO     CLOUDY    30  19  63 S13       30.04F WCI  20
MICHIGAN CITY* CLOUDY    30  19  64 S8G22     30.05F WCI  23
LAPORTE*       CLOUDY    31  22  68 S12G18    30.05F WCI  22
KNOX*          CLOUDY    30  21  67 S17       30.07F WCI  18
SOUTH BEND     CLOUDY    29  20  69 SE13      30.08F WCI  19
GOSHEN         PTSUNNY   28  19  69 SE15      30.10F WCI  16
MONTICELLO*    CLOUDY    31  21  67 S10G17    30.08F WCI  22
LOGANSPORT*    CLOUDY    32  21  64 S14       30.11F WCI  22
ROCHESTER*     CLOUDY    32  23  69 SE12      30.09F WCI  23
WARSAW*        CLOUDY    30  19  64 S7        30.10F WCI  23
ANGOLA*        SUNNY     27  12  54 S9        30.12F WCI  17
FORT WAYNE     CLOUDY    30  19  63 S13       30.15F WCI  20
HUNTINGTON*    CLOUDY    30  19  64 S9        30.13F WCI  22
PERU/GRISSOM   CLOUDY    30  22  72 S14G21    30.10F WCI  20
MARION*          N/A     31  18  59 S14       30.14F HAZE    WCI  21

$$
INZ028>050-282200-
CENTRAL INDIANA

CITY           SKY/WX    TMP DP  RH WIND       PRES   REMARKS
LAFAYETTE      CLOUDY    33  22  63 S13       30.09F WCI  24
KOKOMO*        CLOUDY    30  19  64 S14       30.11F WCI  20
MUNCIE*        CLOUDY    32  17  54 S14       30.14F WCI  22
INDIANAPOLIS   PTSUNNY   33  21  61 SE13      30.11F WCI  24

$$
MIZ043>046-050>051-056>058-064>065-071>073-077>080-282200-
SOUTHWEST LOWER MICHIGAN

CITY           SKY/WX    TMP DP  RH WIND       PRES   REMARKS
BATTLE CREEK   CLOUDY    27  18  69 S10       30.10F WCI  17
BENTON HARBOR  CLOUDY    27  18  69 SE15      30.05F WCI  15
COLDWATER*     CLOUDY    28  20  73 S10       30.12F WCI  18
HILLSDALE*     CLOUDY    26  21  80 S9        30.12F WCI  17
HOLLAND        CLOUDY    26  18  71 SE12      30.07F WCI  16
GRAND RAPIDS   FLURRIES  25  18  74 S12       30.10F WCI  14
KALAMAZOO      CLOUDY    26  17  68 S9        30.10F WCI  17
STURGIS*       PTSUNNY   27  19  74 SE9       30.10F WCI  17
THREE RIVERS*  CLOUDY    28  20  73 S7        30.11F WCI  20

$$
OHZ001>008-015>018-024>025-282200-
NORTHWEST OHIO

CITY           SKY/WX    TMP DP  RH WIND       PRES   REMARKS
WAUSEON*       MOCLDY    27  23  86 S8G15     30.18F WCI  18
DEFIANCE       PTSUNNY   29  22  75 S6        30.18F WCI  23
FINDLAY        LGT SNOW  28  22  78 S12       30.19F WCI  18
TOLEDO EXPRESS CLOUDY    27  21  80 S6        30.19F WCI  20
TOLEDO METCALF LGT SNOW  27  21  78 S10       30.21F WCI  17
LIMA           CLOUDY    31  18  58 S9        30.18F WCI  23

$$
AND FOR LAKE MICHIGAN COASTAL AND OPEN LAKE BUOY OBSERVATIONS

STATION/POSITION TEMP    WIND        PRES    VSBY  WAVE
                 AIR SEA DIR/SP/G                  HT/PER
                 (F)     (DEG/KT/KT) (MB)    (MI)  (FT/S)
CALUMET HARBOR    31     150/ 12/ 19 1015.2F
MICHIGAN CITY     30     140/ 15/ 18   N/A
SAINT JOSEPH      28     120/  4/ 10 1016.9F
SOUTH LAKE BUOY   32 42  150/ 21/ 27 1017.1F         5/ 5

$$
&&



USA.gov is the U.S. government's official web portal to all federal, state and local government web resources and services.